Hourly Data Report for March 11, 2003

SHERBROOKE A
QUEBEC

45°26'00.000" N
71°41'00.000" W
241.40 m
7028124
71610
YSC

Download Data

Hourly Data (March 2003)
Hourly Data Report for March 11, 2003
TIME
LST
Temp Definition
°C
Dew Point Definition
°C
Rel Hum Definition
%
Precip. Amount Definition
mm

Wind Dir Definition
10's deg

Wind Spd Definition
km/h
Visibility Definition
km
Stn Press Definition
kPa
Hmdx Definition


Wind Chill Definition


Weather Definition


00:00 -14.5 -22.7 50   24 19 15.0 98.58   -23  
01:00 -14.6 -22.5 51   24 15 15.0 98.65   -22  
02:00 -15.0 -22.6 52   23 13 15.0 98.64   -22  
03:00 -14.6 -21.7 55   24 15 15.0 98.63   -22  
04:00 -14.5 -21.5 55   23 17 15.0 98.66   -23  
05:00 -14.7 -21.9 54   21 9 15.0 98.68   -20  
06:00 -14.2 -21.6 53   21 15 15.0 98.68   -22  
07:00 -13.5 -20.3 57   20 13 15.0 98.68   -20  
08:00 -12.3 -19.4 55   20 17 24.1 98.70   -20 Mainly Clear
09:00 -10.2 -18.1 52   22 17 24.1 98.68   -17 Mainly Clear
10:00 -8.4 -16.8 51   23 19 24.1 98.63   -16 Mostly Cloudy
11:00 -7.5 -16.4 49   23 17 24.1 98.58   -14 Mostly Cloudy
12:00 -6.6 -15.0 51   21 20 24.1 98.55   -14 Cloudy
13:00 -5.4 -14.7 48   24 19 24.1 98.46   -12 Mostly Cloudy
14:00 -4.8 -14.6 46   21 24 24.1 98.38   -12 Cloudy
15:00 -4.1 -14.2 45   22 17 24.1 98.35   -10 Cloudy
16:00 -3.7 -14.4 43   21 20 24.1 98.27   -10 Cloudy
17:00 -3.3 -14.0 43   22 11 24.1 98.25   -8 Cloudy
18:00 -3.3 -14.0 43   25 26 15.0 98.27   -10  
19:00 -4.0 -12.2 53   24 20 15.0 98.33   -10  
20:00 -5.1 -12.4 57   25 9 15.0 98.34   -9  
21:00 -5.1 -11.6 60   20 6 15.0 98.31   -8  
22:00 -5.5 -13.0 55   18 7 15.0 98.26   -9  
23:00 -6.1 -14.3 52   16 9 15.0 98.13   -10  

Notes on Data Quality.

Legend

  • E = Estimated
  • M = Missing
  • NA = Not Available*
  • [empty] = Indicates an unobserved value
Date modified: